User: anonymous   Login
Location: Unspecified
(0.0000°N, 0.0000°E)
Time: 16:26:19
(UTC+00:00)
Language:

DUCHIFAT 1 - Orbit

View from above orbital plane
View from above orbital plane
View from above satellite
View from above satellite

Ground track
Ground track

The orbit data is extracted from the following two-line orbital elements,

1 40021U 14033M   20292.76633889  .00000583  00000-0  64753-4 0  9998
2 40021  97.9478 224.7887 0011522 238.6239 121.3852 14.91005270344265
Epoch (UTC): 18 October 2020 18:23:31
Eccentricity: 0.0011522
inclination: 97.9478°
perigee height: 587 km
apogee height: 603 km
right ascension of ascending node: 224.7887°
argument of perigee: 238.6239°
revolutions per day: 14.91005270
mean anomaly at epoch: 121.3852°
orbit number at epoch: 34426

The dashed part of the orbit path shows where the satellite is in the earth's shadow,  

DLR